Temp
91 92 93 93 92 88 84 79 78 78 76 71 73 68 67 67 68 69 71 70 67 68 66 64 65 63 62 63 64 72 75 74
91 91 91 90 89 86 82 78 78 77 75 71 70 69 70 68 68 67 66 68 69 68 64 63 63 63 62 63 63 68 69 72
87 90 89 86 86 84 82 78 77 77 77 75 73 70 72 72 71 69 67 67 67 63 64 62 64 62 61 61 62 64 70 72
85 87 87 84 84 82 82 79 77 76 77 75 73 67 70 67 69 69 69 70 70 67 63 62 62 61 60 62 62 65 66 69
85 87 86 83 83 83 82 80 78 77 76 73 69 68 66 71 71 70 70 70 69 66 62 62 61 61 60 62 63 64 67 67
84 86 89 87 84 82 81 80 79 78 77 77 74 73 72 73 72 67 65 66 63 62 62 61 61 61 61 61 62 64 68 68
86 88 90 87 85 82 79 79 78 78 78 77 75 73 71 71 69 65 62 62 61 60 60 61 61 61 60 61 63 67 69 70
82 85 87 86 82 79 78 79 75 78 77 76 75 74 71 67 68 66 61 59 59 59 59 59 59 61 62 63 63 66 68 68
80 84 85 83 81 78 78 78 73 77 76 75 75 75 73 73 72 70 66 62 61 60 59 59 59 60 61 62 66 67 67 67
74 82 81 82 79 71 71 76 68 73 76 76 74 72 71 70 70 69 67 67 65 63 60 58 58 59 59 60 60 64 66 65
62 78 79 80 73 68 66 71 66 70 75 75 71 71 71 70 69 68 67 67 67 65 62 60 58 58 59 58 59 59 59 59
53 58 74 73 66 64 64 65 66 66 67 71 68 67 70 69 68 69 68 67 66 64 64 61 59 58 58 58 59 58 57 58
46 49 52 62 61 61 62 65 64 65 67 67 67 67 67 68 67 69 69 67 66 64 63 64 61 60 59 58 57 58 58 58
43 44 45 47 49 53 55 62 63 63 64 64 64 65 66 66 66 66 66 65 63 63 63 63 64 63 61 60 59 59 60 58
40 40 41 43 45 46 47 48 53 58 59 57 57 60 65 66 67 67 64 65 63 62 63 63 63 62 59 59 60 60 60 61
37 38 39 41 42 42 44 45 46 50 50 49 48 49 51 51 51 56 59 56 55 55 59 51 48 45 42 44 53 58 61 62
36 37 38 38 40 41 42 42 44 46 46 46 47 47 48 47 48 49 47 46 47 47 43 42 41 40 36 37 41 56 60 57
36 36 36 37 38 40 40 41 45 44 44 45 47 48 47 47 47 45 43 41 41 41 40 39 36 36 36 37 37 48 46 41
35 35 37 38 39 39 41 40 40 42 44 44 46 48 48 47 46 43 42 40 39 39 39 38 36 35 35 36 37 42 38 37
MSLP
995.69 996.09 996.40 997.36 998.24 999.73 1001.18 1002.80 1003.62 1004.54 1005.34 1006.38 1006.65 1007.42 1008.11 1008.33 1008.48 1008.79 1008.86 1009.38 1010.02 1010.38 1011.05 1011.70 1012.30 1013.06 1013.66 1014.04 1014.26 1014.27 1014.09 1014.56
995.44 995.63 996.22 997.22 997.92 999.46 1000.80 1002.24 1003.22 1004.09 1004.88 1005.62 1006.04 1006.89 1007.45 1008.03 1008.41 1008.61 1008.93 1009.31 1009.67 1010.28 1010.82 1011.46 1012.24 1012.80 1013.41 1013.84 1014.17 1014.20 1014.23 1014.54
995.23 995.17 996.04 997.37 997.96 999.15 1000.35 1001.94 1002.89 1003.56 1004.24 1004.92 1005.48 1006.59 1006.96 1007.44 1007.98 1008.32 1008.57 1009.02 1009.46 1010.20 1010.29 1010.96 1011.69 1012.73 1013.39 1013.80 1014.22 1014.28 1013.94 1014.39
994.66 994.91 995.62 997.24 997.78 998.73 999.93 1001.44 1002.43 1003.15 1003.74 1004.63 1005.56 1006.71 1006.94 1007.33 1007.47 1007.74 1008.14 1008.40 1008.78 1009.52 1009.70 1010.70 1011.26 1012.26 1012.83 1013.50 1013.86 1014.01 1014.06 1014.48
994.14 994.20 994.89 996.53 997.40 998.45 999.54 1000.82 1001.87 1002.76 1003.37 1004.08 1005.10 1005.72 1006.38 1006.45 1006.68 1007.29 1007.89 1008.33 1008.66 1009.22 1010.09 1010.35 1010.82 1011.80 1012.56 1013.08 1013.64 1013.95 1013.84 1013.98
993.69 993.81 993.86 995.67 996.98 998.16 999.28 1000.33 1001.28 1002.13 1002.77 1003.04 1004.22 1004.74 1005.58 1005.82 1006.25 1007.20 1008.03 1008.50 1009.04 1009.38 1009.69 1009.92 1010.65 1011.44 1012.15 1012.76 1013.38 1013.69 1013.57 1013.66
993.14 993.14 993.60 994.68 996.44 997.82 999.11 999.91 1000.72 1001.65 1002.21 1002.81 1003.73 1004.33 1005.14 1005.43 1006.15 1007.08 1008.09 1008.65 1009.18 1009.33 1009.58 1009.90 1010.52 1011.13 1011.88 1012.62 1013.09 1013.34 1013.55 1013.78
993.61 993.34 993.40 994.39 996.08 997.51 998.70 999.53 1000.69 1001.32 1002.03 1002.78 1003.55 1004.30 1005.08 1005.52 1005.90 1006.88 1007.80 1008.53 1009.08 1009.52 1009.81 1010.03 1010.56 1010.78 1011.53 1012.40 1012.97 1013.23 1013.48 1013.71
994.80 994.06 994.07 995.06 996.15 997.60 998.52 999.24 1000.78 1001.20 1001.88 1002.56 1003.39 1004.06 1004.62 1004.97 1005.59 1006.30 1007.28 1008.15 1008.80 1009.46 1009.99 1010.41 1010.91 1011.19 1011.56 1012.28 1012.64 1013.03 1013.34 1013.70
996.97 994.99 995.28 995.57 996.77 998.54 999.39 999.55 1001.22 1001.58 1001.94 1002.48 1003.35 1004.01 1004.63 1005.19 1005.88 1006.48 1006.96 1007.64 1008.47 1009.17 1009.81 1010.28 1010.91 1011.42 1011.88 1012.28 1012.69 1013.07 1013.52 1013.86
999.67 996.92 996.61 996.68 998.10 999.90 1000.82 1000.61 1001.66 1002.07 1002.20 1002.68 1003.78 1004.26 1004.72 1005.34 1005.94 1006.51 1007.02 1007.64 1008.14 1008.74 1009.50 1009.98 1010.68 1011.28 1011.90 1012.45 1012.87 1013.25 1013.66 1013.97
1002.61 1000.72 998.54 998.60 1000.00 1000.92 1001.52 1001.82 1002.19 1002.65 1003.15 1003.41 1004.20 1004.62 1004.73 1005.38 1006.02 1006.52 1007.00 1007.43 1008.10 1008.62 1009.12 1009.80 1010.30 1010.96 1011.56 1012.13 1012.59 1013.09 1013.42 1013.88
1005.12 1004.02 1002.91 1001.64 1001.63 1002.02 1002.24 1002.38 1002.75 1003.36 1003.69 1004.24 1004.72 1004.97 1005.23 1005.60 1006.08 1006.44 1007.06 1007.58 1008.30 1008.75 1009.02 1009.48 1010.18 1010.63 1011.16 1011.69 1012.02 1012.70 1013.10 1013.60
1006.87 1006.24 1005.32 1004.76 1004.06 1003.76 1003.47 1002.97 1003.19 1003.99 1004.54 1004.98 1005.30 1005.52 1005.64 1005.91 1006.33 1006.82 1007.34 1007.80 1008.41 1008.90 1009.20 1009.36 1009.78 1010.41 1011.02 1011.56 1011.82 1012.12 1012.62 1013.10
1008.52 1008.18 1007.60 1006.95 1006.35 1005.56 1005.22 1005.06 1004.86 1004.91 1005.42 1005.80 1006.37 1006.53 1006.33 1006.39 1006.44 1006.80 1007.36 1007.89 1008.40 1008.90 1009.32 1009.69 1010.11 1010.60 1011.17 1011.43 1011.58 1011.79 1012.13 1012.44
1009.92 1009.76 1009.28 1008.73 1008.01 1007.52 1007.00 1006.82 1006.70 1006.80 1006.83 1007.30 1007.87 1008.06 1007.96 1008.16 1008.39 1008.38 1008.50 1008.96 1009.51 1009.60 1009.65 1010.90 1011.64 1012.33 1013.14 1012.89 1012.26 1011.80 1011.71 1011.74
1010.89 1011.06 1010.84 1010.48 1009.68 1009.36 1008.75 1008.50 1008.28 1008.28 1008.19 1008.50 1008.97 1008.90 1008.94 1009.16 1009.43 1009.75 1010.13 1010.59 1010.86 1011.19 1012.00 1012.52 1013.15 1013.88 1014.19 1013.85 1013.36 1012.39 1011.99 1012.48
1011.53 1012.04 1012.29 1011.96 1011.31 1010.68 1010.11 1009.85 1009.73 1009.66 1009.57 1009.83 1009.88 1009.74 1009.87 1010.17 1010.17 1010.83 1011.52 1012.02 1012.32 1012.68 1013.24 1013.86 1014.49 1014.78 1014.62 1014.15 1013.80 1013.36 1013.77 1014.51
1012.74 1013.01 1013.17 1013.00 1012.37 1011.98 1011.55 1011.17 1011.10 1011.02 1010.78 1010.94 1010.94 1010.43 1010.40 1011.15 1011.50 1011.46 1012.54 1013.24 1013.52 1013.97 1014.35 1014.80 1015.18 1015.48 1015.04 1014.34 1014.04 1014.50 1015.11 1015.76
Wind_Speed
18 19 15 14 17 19 18 15 16 14 10 8 7 6 4 4 5 7 9 9 9 10 8 9 9 8 8 7 9 9 10 10
15 17 10 13 16 19 19 17 16 12 10 9 8 7 8 6 6 8 7 7 9 11 7 11 10 10 9 9 7 12 10 10
18 16 14 15 17 19 19 18 17 14 10 9 7 7 7 7 7 9 10 11 12 4 12 11 13 9 11 8 8 9 9 10
18 19 15 16 18 19 19 19 18 15 13 9 7 6 5 6 8 7 7 8 10 10 10 11 12 11 11 12 8 12 8 9
17 18 19 18 17 18 19 19 18 16 15 12 13 9 8 8 8 6 6 6 7 8 8 15 15 11 12 11 8 9 12 12
20 20 19 18 17 17 17 19 19 17 16 14 12 13 9 7 6 8 5 5 4 5 11 12 13 10 13 12 10 11 9 10
19 18 20 19 17 17 18 20 18 18 16 14 13 11 10 7 8 7 5 5 5 4 6 10 11 12 13 11 11 14 11 9
11 11 11 12 19 19 18 20 18 18 16 14 12 11 12 10 10 7 9 5 4 6 5 6 6 9 13 12 11 13 12 9
9 14 11 15 18 20 20 20 18 17 16 15 13 13 8 7 7 8 7 6 7 8 7 7 7 5 7 7 9 8 9 8
20 5 8 12 15 14 11 18 15 15 15 13 12 8 9 8 8 7 5 8 8 12 9 10 9 8 7 7 5 9 8 8
21 6 7 10 16 13 7 9 13 15 13 11 10 11 11 9 8 8 6 6 7 9 12 11 10 11 11 10 7 7 7 4
18 21 6 14 13 11 9 9 13 11 9 11 9 7 8 9 7 7 6 5 5 7 9 10 9 11 11 11 10 9 10 8
15 14 16 7 9 8 8 9 10 10 10 10 7 8 8 9 7 7 6 6 4 4 4 10 10 9 10 11 11 11 12 12
15 14 14 13 13 9 8 5 9 11 9 7 5 5 9 9 8 7 7 6 6 4 4 4 8 9 10 10 10 11 11 11
14 13 13 13 12 12 12 14 11 9 8 10 8 4 5 4 3 6 8 7 6 6 5 5 5 4 1 3 8 9 10 11
14 13 12 13 12 12 13 13 12 11 12 12 10 9 10 11 11 10 11 12 11 11 4 13 13 12 10 10 7 4 12 12
13 13 13 13 13 11 12 12 12 11 12 12 10 10 10 11 11 12 12 12 13 14 14 14 13 9 15 14 11 6 7 9
13 11 11 11 12 12 12 11 9 12 12 11 9 10 11 10 12 13 13 13 12 14 13 13 13 13 19 17 12 6 10 10
9 9 10 9 10 10 10 12 12 12 12 11 10 11 13 12 12 14 13 11 13 11 11 11 12 13 21 18 9 12 11 13
Wind_Direction
223 221 206 202 187 177 171 177 180 180 153 177 171 149 184 175 185 196 205 192 182 194 170 153 161 158 168 177 190 186 173 149
228 219 194 199 183 176 177 178 179 173 175 178 174 188 189 187 190 185 179 195 213 198 188 160 167 171 172 176 195 182 195 155
229 221 181 200 186 181 177 177 181 175 183 178 164 180 206 198 193 189 192 206 208 229 169 166 168 166 166 172 189 197 189 151
226 220 184 191 192 183 181 179 181 181 178 167 161 171 199 197 197 186 204 207 212 192 161 162 168 164 175 182 193 192 177 170
242 224 182 192 197 185 183 178 178 183 173 163 180 179 188 207 189 179 198 220 221 167 184 188 166 169 177 185 192 199 183 182
227 230 200 190 188 184 183 177 180 179 186 171 189 194 192 199 173 156 180 142 162 190 184 168 163 168 171 176 192 204 204 190
232 222 217 176 181 177 184 178 178 181 182 179 194 179 191 179 167 158 158 146 154 124 163 165 165 163 164 182 194 201 204 192
291 252 232 177 180 176 181 178 181 179 179 179 188 181 185 184 176 162 151 149 154 154 141 142 149 161 165 180 196 209 204 199
297 247 203 197 179 178 181 175 181 181 176 178 182 191 188 182 177 161 174 167 169 152 153 148 151 153 150 177 192 196 203 201
314 256 195 181 170 156 186 180 158 187 177 175 177 174 178 172 168 172 174 165 163 167 167 161 165 166 167 170 185 195 199 205
337 310 177 169 128 148 198 150 157 180 175 164 177 180 176 170 170 172 172 185 182 171 179 178 174 177 176 179 181 180 180 179
348 345 9 91 117 144 173 156 168 157 173 148 174 174 176 159 174 177 192 153 162 188 182 172 172 179 178 184 187 177 184 192
358 1 17 64 108 138 145 174 148 154 172 147 174 164 170 166 166 160 164 151 152 161 204 175 174 173 175 183 185 190 194 200
10 9 22 20 31 47 41 96 149 133 146 158 136 148 163 160 171 168 165 157 154 162 187 182 169 178 182 191 195 191 195 196
20 14 17 25 26 39 40 46 40 84 97 79 73 72 99 103 73 149 162 166 163 168 181 165 177 177 50 231 203 201 205 213
24 17 16 20 27 35 43 47 50 54 76 73 64 59 66 63 53 45 55 62 52 47 59 60 64 54 28 3 331 299 221 219
48 22 21 21 30 39 47 48 51 58 65 68 65 60 58 66 61 56 55 56 56 68 64 66 58 48 9 10 0 351 11 14
68 37 26 20 29 32 50 48 57 60 64 60 68 79 73 65 75 66 56 54 54 58 63 66 56 31 11 6 1 46 63 51
60 58 37 27 45 43 57 57 50 47 62 62 61 72 75 67 69 80 72 64 61 57 61 62 54 28 12 3 2 80 75 64